Simultaneous Nadir Overpasses (SNOs) Predictions

Prediction of SNOs between FY3D and NOAA-19 Satellite Orbit:

Table of predicted SNOs for the next 14.0 days since TLE Epoch: 9/11/2021
Index Date (FY3D) Time (FY3D) Lat,Lon (FY3D) SZA (FY3D ) Date (NOAA-19) Time (NOAA-19) Lat,Lon (NOAA-19) SZA (NOAA-19 ) Distance(km) Time Diff (sec)
1 09/23/2021 22:14:45 -78.22, 3.97 100.66 09/23/2021 22:13:34 -78.19, 3.95 100.66 3.00 71
2 09/23/2021 23:05:30 78.21, 171.34 79.35 09/23/2021 23:04:38 78.20, 171.20 79.36 3.36 52
3 09/23/2021 23:56:14 -78.22, -21.42 100.63 09/23/2021 23:55:34 -78.20, -21.50 100.63 3.00 40
4 09/24/2021 00:46:59 78.21, 145.95 79.38 09/24/2021 00:46:37 78.24, 145.99 79.41 3.36 22
5 09/24/2021 01:37:43 -78.23, -46.80 100.60 09/24/2021 01:37:33 -78.25, -46.72 100.58 3.07 10
6 09/24/2021 02:28:28 78.22, 120.56 79.41 09/24/2021 02:28:37 78.25, 120.54 79.44 3.89 9
7 09/24/2021 03:19:12 -78.23, -72.19 100.57 09/24/2021 03:19:33 -78.26, -72.16 100.55 3.03 21
8 09/24/2021 04:09:58 78.26, 94.95 79.49 09/24/2021 04:10:37 78.26, 95.10 79.47 3.38 39
9 09/24/2021 05:00:41 -78.23, -97.58 100.54 09/24/2021 05:01:33 -78.26, -97.61 100.52 3.61 52
10 09/24/2021 05:51:27 78.26, 69.56 79.52 09/24/2021 05:52:37 78.27, 69.66 79.50 2.27 70



Historial Predications of SNOs between FY3D and NOAA-19
